Home   Weather   Mamoutzou   Past weeks
Flag for Mayotte

Past Weather in Mamoutzou, Mayotte — Yesterday and Last 2 Weeks

Now
88 °F

Passing clouds.


Feels Like: 98 °F
Forecast: 83 / 79 °F
Wind: 7 mph from South

Location: Dzaoudzi / Pamanzi Mayotte

Current Time: Oct 22, 2019 at 3:14:36 pm

Latest Report: Oct 22, 2019 at 2:30 pm


Visibility: N/A

Pressure: 29.83 "Hg

Humidity: 66%

Dew Point: 75 °F

Location of MamoutzouLocation

Past Weather in Mamoutzou — Graph

°F

Mamoutzou Temperature Yesterday

Maximum temperature yesterday: 88 °F (at 10:30 am)
Minimum temperature yesterday: 73 °F (at 4:30 am)
Average temperature yesterday: 81 °F

High & Low Weather Summary for the Past Weeks

 TemperatureHumidityPressure
High90 °F (Oct 11, 11:00 am)100% (Oct 19, 4:00 am)30.01 "Hg (Oct 19, 4:00 am)
Low73 °F (Oct 9, 5:30 am)59% (Oct 12, 12:30 pm)29.83 "Hg (Oct 21, 3:00 pm)
Average81 °F79%29.92 "Hg
* Reported Oct 7 2:00 pm — Oct 22 2:00 pm, Mamoutzou. Weather by CustomWeather, © 2019

Note: Actual official high and low records may vary slightly from our data, if they occured in-between our weather recording intervals... More about our weather records

Advertising

Mamoutzou Weather History for the Previous 24 Hours

Scroll right to see more
 ConditionsComfort  
Time TempWeatherWind HumidityBarometerVisibility
2:00 pm
Tue, Oct 22
88 °FPassing clouds.8 mph66%29.83 "HgN/A
1:30 pm88 °FSunny.7 mph66%29.83 "Hg10 mi
1:00 pm88 °FPassing clouds.7 mph66%29.86 "HgN/A
12:30 pm88 °FPassing clouds.7 mph66%29.86 "HgN/A
12:00 pm86 °FPassing clouds.7 mph66%29.89 "HgN/A
11:30 am86 °FPassing clouds.7 mph70%29.89 "HgN/A
11:00 am86 °FPassing clouds.7 mph66%29.89 "HgN/A
10:30 am86 °FPassing clouds.7 mph66%29.89 "HgN/A
10:00 am86 °FPassing clouds.8 mph70%29.92 "HgN/A
9:30 am86 °FPassing clouds.6 mph70%29.92 "HgN/A
9:00 am86 °FPassing clouds.6 mph70%29.92 "HgN/A
8:30 am86 °FSunny.7 mph70%29.92 "Hg10 mi
8:00 am84 °FSunny.3 mph74%29.92 "Hg10 mi
7:30 am84 °FPassing clouds.6 mph70%29.89 "HgN/A
7:00 am81 °FPassing clouds.3 mph79%29.89 "HgN/A
6:30 am79 °FPassing clouds.2 mph84%29.89 "HgN/A
6:00 am77 °FScattered clouds.3 mph89%29.89 "HgN/A
5:30 am77 °FScattered clouds.6 mph89%29.86 "HgN/A
5:00 am77 °FPassing clouds.8 mph89%29.86 "HgN/A
4:30 am75 °FPassing clouds.1 mph89%29.86 "HgN/A
4:00 am75 °FPassing clouds.2 mph94%29.83 "HgN/A
3:30 am75 °FPassing clouds.2 mph89%29.83 "HgN/A
3:00 am73 °FPassing clouds.2 mph89%29.83 "HgN/A
2:30 am75 °FClear.2 mph89%29.83 "Hg10 mi
2:00 am75 °FClear.3 mph89%29.83 "Hg10 mi
1:30 am75 °FClear.2 mph89%29.83 "Hg10 mi
1:00 am75 °FClear.5 mph89%29.83 "Hg10 mi
12:30 am77 °FClear.1 mph83%29.83 "Hg10 mi
12:00 am77 °FClear.2 mph83%29.86 "Hg10 mi
11:30 pm
Mon, Oct 21
79 °FClear.3 mph84%29.86 "Hg10 mi
11:00 pm79 °FClear.5 mph84%29.89 "Hg10 mi
10:30 pm79 °FClear.6 mph89%29.89 "Hg10 mi
10:00 pm79 °FClear.7 mph89%29.89 "Hg10 mi
9:30 pm81 °FClear.7 mph84%29.89 "Hg10 mi
9:00 pm79 °FClear.6 mph84%29.89 "Hg10 mi
8:30 pm79 °FPassing clouds.3 mph84%29.89 "HgN/A
8:00 pm81 °FClear.3 mph79%29.89 "Hg10 mi
7:30 pm81 °FClear.3 mph79%29.89 "Hg10 mi
7:00 pm81 °FPassing clouds.5 mph79%29.89 "HgN/A
6:30 pm81 °FPassing clouds.6 mph79%29.86 "HgN/A
6:00 pm82 °FClear.3 mph74%29.86 "Hg10 mi
5:30 pm84 °FPassing clouds.3 mph70%29.86 "HgN/A
5:00 pm84 °FPassing clouds.5 mph70%29.86 "HgN/A
4:30 pm86 °FPassing clouds.6 mph66%29.83 "HgN/A
4:00 pm86 °FPassing clouds.5 mph66%29.83 "HgN/A
3:30 pm86 °FPassing clouds.5 mph66%29.83 "HgN/A
3:00 pm86 °FPassing clouds.5 mph66%29.83 "HgN/A
Weather by CustomWeather, © 2019

See weather overview